397  
SXUS52 KTAE 231816  
OSOTAE  
OSOTAE  
NORTH FLORIDA/SOUTH ALABAMA/SOUTHWEST GEORGIA WEATHER ROUNDUP  
NATIONAL WEATHER SERVICE TALLAHASSEE FLORIDA  
100 PM EST SAT JAN 23 2021  
 
NOTE: "FAIR" INDICATES FEW OR NO CLOUDS BELOW 12,000 FEET WITH NO  
SIGNIFICANT WEATHER AND/OR OBSTRUCTIONS TO VISIBILITY.  
 
!FLZ017-115-028-034-025-231900   
..NORTH FLORIDA
 
 
 
CITY SKY/WX TMP DP RH WIND PRES REMARKS  
TALL INTL ARPT LGT RAIN 61 41 47 E6 30.13F  
FSU LOVE BLDG N/A N/A N/A N/A MISG N/A  
APALACHICOLA CLOUDY 60 52 74 NE7 30.04R  
PERRY NOT AVBL  
CROSS CITY LGT RAIN 61 57 87 NE3 30.12S  
JACKSONVILLE PTSUNNY 62 49 62 NE12 30.12F  

 
 
!FLZ112-006-005-002-011-231900   
..FLORIDA PANHANDLE
 
 
 
CITY SKY/WX TMP DP RH WIND PRES REMARKS  
MARIANNA MOSUNNY 59 40 49 NE7 30.13F  
BONIFAY NOT AVBL  
PANAMA CITY NW CLOUDY 60 43 53 N7 30.12F  
TYNDALL AFB NOT AVBL  
TYND DRONE APT NOT AVBL  
DE FUNIAK SPR CLOUDY 58 37 45 CALM 30.15F  
EGLIN AFB NOT AVBL  
DESTIN CLOUDY 64 42 44 VRB7 30.13F  
HURLBURT NOT AVBL  
CRESTVIEW PTSUNNY 61 39 44 VRB5 30.15F  
PENSACOLA CLOUDY 63 43 48 VRB7 30.13F  

 
 
!ALZ063-066-231900   
..SOUTH ALABAMA
 
 
 
CITY SKY/WX TMP DP RH WIND PRES REMARKS  
DOTHAN MOSUNNY 60 36 40 NE8 30.17F  
OZARK CAIRNS NOT AVBL  
FT RUCKER HELI NOT AVBL  
RUCKER HELI 3 NOT AVBL  
RUCKER HELI 2 NOT AVBL  
FLORALA APT MOSUNNY 61 35 37 E8 30.16  
ANDALUSIA NOT AVBL  
TROY SUNNY 62 29 28 NE8 30.15F  
EUFALA FAIR 59 34 39 VRB5 30.15F  
MOBILE PTSUNNY 63 44 50 SE10 30.13F  

 
 
!GAZ120>161-231900   
..SOUTHWEST AND SOUTH CENTRAL GEORGIA
 
 
 
CITY SKY/WX TMP DP RH WIND PRES REMARKS  
THOMASVILLE FAIR 61 37 41 NE6 30.15F  
BAINBRIDGE PTSUNNY 59 40 50 NE10 30.14F  
MOODY AFB NOT AVBL  
VALDOSTA PTSUNNY 61 40 45 NE9 30.13F  
MOULTRIE MOSUNNY 55 37 50 NE3 30.15F  
BLAKELY MOSUNNY 59 34 38 NE5 30.15F  
ALBANY SUNNY 61 37 41 VRB3 30.16F  
TIFTON FAIR 61 36 40 NE7 30.13F  
FITZGERALD FAIR 62 38 42 N5 30.15F  
CORDELE FAIR 58 37 45 N6 30.16F  
AMERICUS FAIR 61 36 39 NE5 30.17F  
HOMERVILLE FAIR 61 37 41 N6 30.14F  

 
 
!GMZ750-755-770-775-231900   
..COASTAL AND BUOY OBS
 
 
 
STATION/POSITION TIME TEMP WIND PRES VSBY WAVE  
AIR SEA DIR/SP/G HT/PER  
(UTC) (F) (DEG/KT/KT) (MB) (MI) (FT/S)  
KEATON BEACH 1800 60 30/ 4/ 7 1020.3F  
CEDAR KEY 1800 62 40/ 5/ 6 1019.0F  
C TOWER 1800 57 60/ 13/ 14 1019.7F  
APALACHICOLA BUO 1800 30/ 10/ 12 1020.0  
PANAMA CITY BUOY 1800 64 71 80/ 14/ 17 1019.0  
MOBILE BUOY NOT AVBL  
ORANGE BCH AL BU 1800 59 61 1020.3  

 
 
 
CLICK HERE TO GO TO PREVIOUS BULLETINS.

The Nexlab FL Page
The Nexlab GA Page
The Nexlab AL Page Main Text Page